Regional Weather Roundup
Issued by NWS New Orleans/Baton Rouge, LA

Home | Current Version | Previous Version | Graphics & Text | Print | Product List | Glossary On
Versions: 1 2 3 4 5 6 7 8 9 10 11 12 13 14 15 16 17 18 19 20 21 22 23 24 25 26 27 28 29 30 31 32 33 34 35 36 37 38 39 40 41 42 43 44 45 46 47 48 49 50
669
ASUS44 KLIX 200201
RWRLIX
NEW ORLEANS REGIONAL WEATHER ROUNDUP
NATIONAL WEATHER SERVICE NEW ORLEANS LA
800 PM CST FRI DEC 19 2014

NOTE: "FAIR" INDICATES FEW OR NO CLOUDS BELOW 12,000 FEET WITH NO
      SIGNIFICANT WEATHER AND/OR OBSTRUCTIONS TO VISIBILITY.
      SKY/WX - SKY CONDITION AND SIGNIFICANT WEATHER.
      TMP - AIR TEMPERATURE.     DP    - DEWPOINT TEMPERATURE.
      RH  - RELATIVE HUMIDITY.   PRES  - PRESSURE.
      HI  - HEAT INDEX.          WCI   - WIND CHILL INDEX.

*  THESE STATIONS ARE NOT NWS OR FAA STATIONS AND ARE NOT UNDER
   NWS QUALITY CONTROL.

LAZ038-040-048-061>063-065>067-069-200300-
SOUTHEAST LOUISIANA

CITY           SKY/WX    TMP DP  RH WIND       PRES   REMARKS
N.O. AUDUBON     N/A     54  49  86 MISG        N/A
N.O. INTL ARPT LGT RAIN  51  49  92 NE15      30.09R FOG
N.O. LAKEFRONT LGT RAIN  53  48  83 NE17      30.11R
N.O. DOWNTOWN* CLOUDY    52  45  76 NE8       30.10R
SLIDELL        RAIN      49  47  93 N9        30.10R FOG
BATON ROUGE    CLOUDY    48  46  93 NE9       30.09S
BOOTHVILLE     CLOUDY    58  57  97 NE9       30.04F
BELLE CHASSE   CLOUDY    52  50  93 NE10G18   30.08R
BOGALUSA*      HVY RAIN  49  46  88 NE6       30.15R
GALLIANO*      NOT AVBL
NEW ROADS*     NOT AVBL
GONZALES*      NOT AVBL
HAMMOND*       NOT AVBL
HOUMA*         LGT RAIN  52  51  98 NE14      30.07R
PORT FOURCHON* CLOUDY    59  57  94 NE15G21   30.06S

$$

MSZ070-080>082-200300-
SOUTHERN MISSISSIPPI

CITY           SKY/WX    TMP DP  RH WIND       PRES   REMARKS
MCCOMB         LGT RAIN  46  44  93 NE5       30.11S
GULFPORT       LGT RAIN  48  46  93 NE10      30.09S FOG
BILOXI         LGT RAIN  48  48 100 NE13      30.10F
PASCAGOULA     LGT RAIN  48  47  96 NE10      30.11S FOG

$$

COASTAL OBSERVATIONS
LAKE AND NEARSHORE STATIONS

STATION/POSITION TIME  TEMP    WIND        PRES    WAVE
                       AIR SEA DIR/SP/G            HT/PER
                 (UTC) (F)     (DEG/KT/KT) (MB)    (FT/S)
PASCAGOULA       0100   49      70/ 15/ 20 1018.4
WAVELAND YACHT   0100   49      60/ 13/ 16 1018.1
GRAND ISLE       0100   58 62   60/ 13/ 18 1017.5
SOUTHWEST PASS   0100   58                 1016.8
NEW CANAL        0100   52 57   50/ 14/ 17 1019.3
SHELL BEACH      0100   53 58   60/ 20/ 24 1017.9

OFFSHORE STATIONS

STATION/POSITION TIME  TEMP    WIND        PRES    WAVE
                       AIR SEA DIR/SP/G            HT/PER
                 (UTC) (F)     (DEG/KT/KT) (MB)    (FT/S)
64 S DAUPHIN ISL 0200   66 74  120/ 14/ 16 1017.1    4/ 6

$$




USA.gov is the U.S. government's official web portal to all federal, state and local government web resources and services.